Location: Pordenone
(45.9640°N, 12.6580°E)
Time: 17:00:01
(UTC+02:00)

ISS - Pass Details

Date: 22 May 2021
Orbit: 417 x 422 km, 51.6° (Epoch: 18 June)

Event Time Altitude Azimuth Distance (km) Brightness Sun altitude
Rises 01:21:24 0° 296° (WNW) 2,371 0.4 -23.6°
Reaches altitude 10° 01:23:31 10° 293° (WNW) 1,505 -0.8 -23.5°
Enters shadow 01:23:56 13° 291° (WNW) 1,338 -1.0 -23.5°
